Redmond, OR

5:43 PM PDT on April 23, 2017 (GMT -0700)
Roberts Field Airport

Weather History for KRDM - June, 2013

Change the Weather History Date:

Thursday, June 27, 2013

  Actual Average Record
Temperature  
Mean Temperature 66 °F 62 °F  
Max Temperature 86 °F 80 °F 100 °F (2015)
Min Temperature 46 °F 43 °F 29 °F (1965)
Degree Days  
Heating Degree Days 0 5  
Month to date heating degree days 185 204  
Since 1 June heating degree days 185 204  
Since 1 July heating degree days 6406 6700  
Cooling Degree Days 1 1  
Month to date cooling degree days 9 17  
Year to date cooling degree days 18 22  
Since 1 June cooling degree days 9 17  
Growing Degree Days 15 (Base 50)    
Moisture  
Dew Point 50 °F    
Average Humidity 66    
Maximum Humidity 100    
Minimum Humidity 31    
Precipitation  
Precipitation 0.00 in 0.02 in 0.23 in (1952)
Month to date precipitation 0.46 0.60  
Year to date precipitation 1.92 4.64  
Sea Level Pressure  
Sea Level Pressure 30.11 in    
Wind  
Wind Speed 5 mph (NW)    
Max Wind Speed 16 mph    
Max Gust Speed 22 mph    
Visibility 10 miles    
Events      
T = Trace of Precipitation, MM = Missing Value Source: NWS Daily Summary

Daily Weather History Graph

Daily Weather History Graph

Search for Another Location

Airport or City:

Trip Planner

Search our weather history database for the weather conditions in past years. The results will help you decide how hot, cold, wet, or windy it might be!

Date:

Astronomy

Jun. 27, 2013 Rise Set
Actual Time 5:22 AM PDT 8:52 PM PDT
Civil Twilight 4:46 AM PDT 9:29 PM PDT
Nautical Twilight 3:58 AM PDT 10:17 PM PDT
Astronomical Twilight 2:56 AM PDT 11:18 PM PDT
Moon 11:39 PM PDT (6/27) 10:41 AM PDT (6/27)
Length of Visible Light 16h 42m
Length of Day
15h 29m
Waning Gibbous, 75% of the Moon is Illuminated
Jun 27
Waning Gibbous
Jun 29
Last Quarter
Jul 8
New
Jul 15
First Quarter
Jul 22
Full

Hourly Weather History & Observations

Time (PDT) Temp. Dew Point Humidity Pressure Visibility Wind Dir Wind Speed Gust Speed Precip Events Conditions
12:56 AM 52.0 °F 48.0 °F 86% 30.08 in 10.0 mi Calm Calm - N/A   Clear
1:56 AM 48.9 °F 46.9 °F 93% 30.08 in 10.0 mi SSE 3.5 mph - N/A   Clear
2:56 AM 48.9 °F 46.9 °F 93% 30.08 in 10.0 mi Calm Calm - N/A   Clear
3:56 AM 48.0 °F 46.0 °F 93% 30.07 in 10.0 mi Calm Calm - N/A   Clear
4:56 AM 46.9 °F 46.0 °F 97% 30.09 in 10.0 mi South 3.5 mph - N/A   Clear
5:56 AM 46.9 °F 46.0 °F 97% 30.11 in 10.0 mi Calm Calm - N/A   Clear
6:56 AM 53.1 °F 48.9 °F 86% 30.11 in 10.0 mi South 3.5 mph - N/A   Clear
7:56 AM 59.0 °F 51.1 °F 75% 30.12 in 10.0 mi SSE 3.5 mph - N/A   Clear
8:56 AM 64.0 °F 52.0 °F 65% 30.12 in 10.0 mi Calm Calm - N/A   Clear
9:56 AM 69.1 °F 52.0 °F 54% 30.13 in 10.0 mi Variable 3.5 mph - N/A   Clear
10:56 AM 72.0 °F 51.1 °F 48% 30.12 in 10.0 mi Calm Calm - N/A   Clear
11:56 AM 75.9 °F 48.9 °F 38% 30.10 in 10.0 mi Calm Calm - N/A   Clear
12:56 PM 78.1 °F 50.0 °F 37% 30.11 in 10.0 mi Variable 3.5 mph - N/A   Mostly Cloudy
1:56 PM 81.0 °F 48.9 °F 33% 30.11 in 10.0 mi Calm Calm - N/A   Clear
2:56 PM 82.9 °F 50.0 °F 32% 30.09 in 10.0 mi Variable 4.6 mph - N/A   Scattered Clouds
3:56 PM 84.0 °F 50.0 °F 31% 30.10 in 10.0 mi NNW 9.2 mph - N/A   Clear
4:56 PM 82.9 °F 50.0 °F 32% 30.10 in 10.0 mi NNW 11.5 mph - N/A   Clear
5:56 PM 84.0 °F 51.1 °F 32% 30.10 in 10.0 mi NNW 12.7 mph - N/A   Clear
6:56 PM 82.9 °F 51.1 °F 33% 30.09 in 10.0 mi NNW 13.8 mph 17.3 mph N/A   Clear
7:56 PM 80.1 °F 51.1 °F 36% 30.10 in 10.0 mi NNW 11.5 mph - N/A   Clear
8:56 PM 75.0 °F 53.1 °F 46% 30.12 in 10.0 mi North 6.9 mph - N/A   Clear
9:56 PM 71.1 °F 53.1 °F 53% 30.14 in 10.0 mi NW 8.1 mph - N/A   Clear
10:56 PM 68.0 °F 54.0 °F 61% 30.16 in 10.0 mi NW 9.2 mph - N/A   Clear
11:56 PM 66.0 °F 54.0 °F 65% 30.16 in 10.0 mi NW 10.4 mph - N/A   Clear